Back to catalog

FENGYUN 1C DEB

AliveSSO
NORAD 32086·DEBRIS·🇨🇳 China

Launched May 10, 1999 from Taiyuan Satellite Launch Center

Loading…

Next Passes (next 24 hours)

TLE

AgingSource: Space-Track

Epoch: Sep 7, 2026, 09:22 UTC

1 32086U 99025CQC 26250.39050193  .00001358  00000-0  11631-2 0  9990
2 32086  99.2644 300.5123 0299006 154.5850 207.0349 13.69982080654582

Track FENGYUN 1C DEB in real time with AllMySat

Download on the App Store